Tracking 29487 objects as of 10-Sep-2024
HD Live streaming from Space Station
objects crossing your sky now

COSMOS 1030 DEB

Track COSMOS 1030 DEB now!


NORAD ID: 39447
Int'l Code: 1978-083T
Perigee: 2,358.5 km
Apogee: 38,040.1 km
Inclination: 64.2 °
Period: 718.4 minutes
Semi major axis: 26570 km
RCS: Unknown
Launch date: September 6, 1978
Source: Commonwealth of Independent States (former USSR) (CIS)
Launch site: PLESETSK MISSILE AND SPACE COMPLEX (PKMTR)

Note: This is SATELLITE DEBRIS
Your satellite tracking list
Your tracking list is empty




NASA's NSSDC Master Catalog

Two Line Element Set (TLE):
1 39447U 78083T   24251.29412364  .00000132  00000-0  00000-0 0  9994
2 39447  64.2419 259.2933 6714563   4.5561 359.3650  2.00450808 69767
Source of the keplerian elements: AFSPC